Location: Gleizolles
(44.4833°N, 6.7667°E)
Time: 11:07:17
(UTC+00:00)

Envisat - Pass Details

Date: 12 December 2021
Orbit: 764 x 766 km, 98.2° (Epoch: 20 January)

Event Time Altitude Azimuth Distance (km) Brightness Sun altitude
Rises 16:50:39 0° 206° (SSW) 3,220 7.1 -9.9°
Reaches altitude 10° 16:53:36 10° 224° (SW) 2,299 6.7 -10.4°
Maximum altitude 16:57:09 19° 269° (W) 1,762 5.9 -11.0°
Drops below altitude 10° 17:00:44 10° 314° (NW) 2,311 5.8 -11.6°
Sets 17:03:43 0° 332° (NNW) 3,243 6.3 -12.1°
